This demonstration page uses our WeatherBlox Daily Observations layout. Learn more.

Left ArrowRight Arrow

39.92423, -83.80882

Hourly Observations for June 25, 2022

Temp ( °F °C ) Dew Point ( °F °C ) Humidity (%) Winds ( mph kmh ) Pressure ( in mb ) Visibility ( mi km ) Precip ( " mm )
12:56 am 00:56 Clear 65 18.3 55 12.8 70 70 ESE 3 6 30.07 1018 10 16 0.00 0.00
1:56 am 01:56 Clear 63 17.2 55 12.8 76 76 E 3 6 30.07 1018 10 16 0.00 0.00
2:56 am 02:56 Clear 63 17.2 55 12.8 76 76 SE 3 6 30.06 1018 10 16 0.00 0.00
3:56 am 03:56 Clear 62 16.7 54 12.2 75 75 SE 3 6 30.06 1018 10 16 0.00 0.00
4:56 am 04:56 Clear 61 16.1 54 12.2 78 78 Calm 30.06 1018 10 16 0.00 0.00
5:56 am 05:56 Clear 57 13.9 57 13.9 100 100 Calm 30.07 1018 10 16 0.00 0.00
6:56 am 06:56 Sunny 59 15 58 14.4 96 96 NE 5 7 30.09 1019 10 16 0.00 0.00
7:56 am 07:56 Sunny 66 18.9 61 16.1 84 84 E 3 6 30.09 1019 10 16 0.00 0.00
8:56 am 08:56 Sunny 72 22.2 60 15.6 66 66 ESE 5 7 30.10 1019 10 16 0.00 0.00
9:56 am 09:56 Sunny 78 25.6 59 15 52 52 SE 7 11 30.09 1019 10 16 0.00 0.00
10:56 am 10:56 Sunny 81 27.2 58 14.4 45 45 ESE 7 11 30.09 1019 10 16 0.00 0.00
11:56 am 11:56 Sunny 83 28.3 57 13.9 41 41 SSE 6 9 30.08 1019 10 16 0.00 0.00
12:56 pm 12:56 Sunny 85 29.4 56 13.3 37 37 S 6 9 30.07 1018 10 16 0.00 0.00
1:56 pm 13:56 Sunny 87 30.6 55 12.8 34 34 SW 6 9 30.06 1018 10 16 0.00 0.00
2:56 pm 14:56 Sunny 87 30.6 57 13.9 36 36 Calm 30.05 1018 10 16 0.00 0.00
3:56 pm 15:56 Sunny 87 30.6 59 15 39 39 W 9 15 30.05 1018 10 16 0.00 0.00
4:56 pm 16:56 Sunny 86 30 59 15 40 40 W 10 17 30.06 1018 10 16 0.00 0.00
5:56 pm 17:56 Sunny 87 30.6 59 15 39 39 W 7 11 30.03 1017 10 16 0.00 0.00
6:56 pm 18:56 Sunny 85 29.4 59 15 42 42 SSW 5 7 30.00 1016 10 16 0.00 0.00
7:56 pm 19:56 Sunny 81 27.2 63 17.2 54 54 SSE 5 7 29.99 1016 10 16 0.00 0.00
8:56 pm 20:56 Mostly Cloudy 80 26.7 63 17.2 56 56 SW 6 9 30.02 1017 10 16 0.00 0.00
9:56 pm 21:56 Mostly Cloudy 78 25.6 64 17.8 62 62 Calm 30.03 1017 10 16 0.00 0.00
10:56 pm 22:56 Cloudy 76 24.4 64 17.8 67 67 Calm 30.04 1017 10 16 0.00 0.00
11:56 pm 23:56 Partly Cloudy 77 25 65 18.3 66 66 Calm 30.02 1017 10 16 0.00 0.00

Powered by AerisWeather